Domov               UVHVVR             MKGP            O straneh              
ZDRAVSTVENO VARSTVO RASTLIN
  MREŽA AGROMET. POSTAJ
 ► PROGNOSTIČNA OBVESTILA
AGROMETEOROLOŠKI PODATKI -
ARSO
OBVLADOVANJE TVEGANJ ZARADI
NEUGODNIH VREMENSKIH RAZMER
  ► NARAVNE NESREČE
  ► SUŠA/MOČA
  ► NAMAKANJE
  ► ŽLED (gozdarstvo)
KARTOGRAFSKI PRIKAZI
SPLETNE POVEZAVE
PROJEKTI IN PUBLIKACIJE

AGROMETEOROLOŠKA MREŽA: VREMENSKE POSTAJE IN FENOLOŠKA OPAZOVANJA

Pregled podatkov za lokacijo Blanca, meteorološka postaja 27263

Pregled senzorjev na lokaciji

ID Ime Zadnja
vrednost
Datum
zadnje
spremembe
Tip
senzorja
2153 Relativna vlaga 2 m (% RH) 44,01 % RH 18.1.2018 20:03 Generic 0 - 100 %
2154 Omočenost lista (U) 0 U 18.1.2018 19:33 A730WET
2155 Padavine (mm) 0 mm 18.1.2018 19:34 Generic
2158 Temperatura 2 m (°C) 6,04 °C 18.1.2018 20:03 Generic -40 - +60 °C

Pregled podatkov zadnjih 24 ur

Zap.
št.
Datum in čas Blanca
Omočenost
lista
Padavine Relativna
vlaga
2
m
Temperatura
2
m
0 18.1.2018 19:30 0 0 37,87 6,48
1 18.1.2018 19:00 0 0 34,61 6,85
2 18.1.2018 18:30 0 0 34,47 6,98
3 18.1.2018 18:00 0 0 32,58 7,53
4 18.1.2018 17:30 0 0 31 7,94
5 18.1.2018 17:00 0 0 30,84 8,25
6 18.1.2018 16:30 0 0 30,31 8,59
7 18.1.2018 16:00 0 0 28,74 9,01
8 18.1.2018 15:30 0 0 27,13 9,27
9 18.1.2018 15:00 0 0 27,14 9,41
10 18.1.2018 14:30 0 0 28,39 9,33
11 18.1.2018 14:00 0 0 30,3 9,03
12 18.1.2018 13:30 0 0 33,08 8,13
13 18.1.2018 13:00 0 0 34,94 7,89
14 18.1.2018 12:30 0 0 37,81 6,56
15 18.1.2018 12:00 0 0 43,76 5,39
16 18.1.2018 11:30 0 0 50,17 4,56
17 18.1.2018 11:00 0 0 57,66 2,9
18 18.1.2018 10:30 0 0 59,58 2,32
19 18.1.2018 10:00 0 0 66,79 0,86
20 18.1.2018 09:30 0 0 70,55 -0,11
21 18.1.2018 09:00 0 0 74,36 -1,45
22 18.1.2018 08:30 0 0 73,26 -1,95
23 18.1.2018 08:00 0 0 71,16 -2,14
24 18.1.2018 07:30 0 0 73,32 -2,46
25 18.1.2018 07:00 0 0 75,95 -2,6
26 18.1.2018 06:30 0 0 67,7 -1,52
27 18.1.2018 06:00 0 0 75,72 -2,39
28 18.1.2018 05:30 0 0 75,63 -2,44
29 18.1.2018 05:00 0 0 77,35 -2,58
30 18.1.2018 04:30 0 0 63,76 -0,91
31 18.1.2018 04:00 0 0 68,72 -1,5
32 18.1.2018 03:30 0 0 59,71 -0,12
33 18.1.2018 03:00 0 0 56,55 0,52
34 18.1.2018 02:30 0 0 54,47 0,85
35 18.1.2018 02:00 0 0 63,97 -0,18
36 18.1.2018 01:30 0 0 63,88 -0,14
37 18.1.2018 01:00 0 0 56,18 1,02
38 18.1.2018 00:30 0 0 63,1 -0,04
39 18.1.2018 00:00 0 0 61,86 -0,14
40 17.1.2018 23:30 0 0 59,72 0,14
41 17.1.2018 23:00 0 0 57,65 0,45
42 17.1.2018 22:30 0 0 51,09 1,48
43 17.1.2018 22:00 0 0 45,63 2,15
44 17.1.2018 21:30 0 0 44,07 2,37
45 17.1.2018 21:00 0 0 36,95 3,22
© 2011 Ministrstvo za kmetijstvo, gozdarstvo in prehrano. Vse pravice pridržane.